Details for Ryanair at LICC




Go Back


Latest METAR
Local Time

LICC 250450Z 24003KT CAVOK 15/14 Q1015

25/05/2018, 06:56:16

Description
Results
Ryanair Logo
Number of Pilots based at LICC
0 Pilots Based here
Number of Ryanair Flights Departed from LICC
2 Flights Departed
Number of Ryanair Flights Arrived at LICC
1 Flights Arrived
Number of Ryanair Schedules Departing from LICC
56 Schedules
Number of Ryanair Schedules Arriving at LICC
63 Schedules
Number of Ryanair Schedules Departing from LICC availible today
26 Schedules Today
Number of Ryanair Schedules Arriving at LICC availible today
27 Schedules Today
Average Landing Rate at LICC
-203 fpm
Ryanair Average Landing Rate at LICC
-180 fpm
Total Fuel Purchased at LICC by Ryanair
5,714.81 kgs / 12,598.87 lbs

Pilots Based at LICC


Pilot ID
Pilot Name
Pilot Rank
No. of Flights
No. of Flying Hours
There are no pilots assigned to this hub!   Will you be the first?
Content